Location: Godiavel Galaoual
(15.2485°N, 12.6604°W)
Time: 06:06:07
(UTC+00:00)

Hubble Space Telescope - Visible Passes

Search period start: 05 August 2021 00:00
Search period end: 15 August 2021 00:00
Orbit: 535 x 539 km, 28.5° (Epoch: 04 August)

Date Brightness Start Highest point End Pass type
(mag) Time Alt. Az. Time Alt. Az. Time Alt. Az.
05 Aug 0.8 20:09:22 10° WNW 20:13:28 75° NNE 20:15:57 23° ESE visible
06 Aug 0.8 19:58:22 10° WNW 20:02:30 81° SSW 20:05:39 17° ESE visible
07 Aug 1.1 19:47:27 10° WNW 19:51:30 58° SSW 19:55:24 11° SE visible
08 Aug 1.7 19:36:36 10° W 19:40:30 42° SSW 19:44:24 10° SE visible
